RH
34 32 32 34 35 29 15 15 20 18 20 21 18 17 15 16 20 23 22 22 20 18 15 14 14 15 13 14 16 26 25 34 38 38 31 28 23 21 19 21 24 24 22 21 20
41 34 32 32 33 33 16 14 18 19 20 19 17 16 17 16 23 23 23 24 22 21 18 17 16 16 14 14 16 22 28 38 31 26 21 20 19 14 12 14 14 17 21 24 27
29 19 17 18 26 30 17 15 17 19 19 17 16 18 24 19 22 25 26 25 23 22 20 18 18 19 16 15 16 17 18 19 20 21 25 24 23 22 16 14 16 20 24 24 25
26 18 17 15 19 20 16 16 18 18 16 16 17 20 26 26 23 28 28 26 24 22 20 20 21 20 18 17 17 19 18 20 21 28 29 30 27 24 23 24 22 19 21 24 27
36 20 18 17 15 15 17 17 17 16 16 19 23 26 26 27 29 31 28 26 24 21 20 22 20 20 20 21 24 25 27 28 28 30 33 33 31 27 27 32 30 28 31 34 35
34 31 22 20 18 18 18 17 17 17 18 24 29 29 28 27 30 31 28 27 24 22 22 22 21 22 25 25 25 27 28 28 30 31 32 34 32 30 33 32 35 38 38 40 39
34 32 32 26 22 22 20 23 27 30 26 25 29 28 32 26 29 30 28 27 25 22 23 22 23 24 24 27 29 28 30 29 30 32 33 34 32 34 33 33 33 36 40 39 37
34 33 30 32 28 24 24 24 25 29 29 26 28 28 26 26 27 28 28 27 27 23 24 24 25 26 25 27 27 29 30 33 33 33 33 35 33 34 34 33 31 32 32 33 30
36 33 32 30 31 29 24 26 27 28 30 28 28 28 25 26 27 27 26 26 28 25 25 25 25 25 27 28 28 32 33 36 35 34 37 38 32 35 33 30 28 27 27 26 27
33 34 32 31 29 31 30 25 28 28 27 28 26 26 29 25 25 24 24 25 26 26 25 26 25 28 29 31 33 36 36 37 41 36 38 34 31 37 31 32 32 29 28 29 30
30 32 32 31 30 29 30 29 26 27 26 27 26 27 26 24 24 22 22 24 24 26 25 26 30 28 32 32 33 35 38 42 37 37 36 37 31 33 32 34 35 34 31 30 32
30 30 31 31 30 29 29 29 28 27 28 28 27 25 23 23 24 20 20 22 21 22 25 24 26 29 32 36 34 36 34 34 37 37 37 32 31 32 34 38 36 35 35 35 36
32 30 29 30 30 30 29 28 29 27 25 30 28 24 21 23 22 20 21 22 21 21 23 24 30 32 32 39 36 33 32 34 39 37 37 33 29 32 35 39 37 37 39 39 40
35 33 32 31 31 30 29 28 28 27 28 30 28 27 22 22 23 22 22 23 24 25 27 26 29 31 35 38 37 34 35 39 40 47 43 38 40 32 34 39 38 38 40 44 47
37 36 34 33 33 30 30 29 30 27 38 31 29 27 23 23 25 26 26 26 28 27 33 31 31 33 40 39 46 39 47 38 40 52 50 47 45 29 35 39 41 40 42 44 49
38 37 36 36 35 32 31 31 34 34 37 32 30 26 25 26 27 29 30 28 32 30 33 34 34 37 43 43 50 52 43 38 46 53 64 50 45 31 35 38 42 43 45 48 50
40 39 38 37 36 33 32 34 38 37 31 31 30 27 27 28 29 33 34 31 34 32 35 36 37 39 44 46 51 57 45 44 55 66 60 52 50 32 37 40 44 45 48 50 50
46 40 40 40 38 35 34 38 40 31 30 31 30 30 30 31 34 36 38 36 37 40 43 43 39 41 46 50 61 56 52 49 53 70 60 44 52 36 38 42 47 48 48 48 50
50 45 42 42 40 38 38 37 31 32 33 32 32 33 32 35 37 39 40 38 40 43 47 51 48 44 50 53 58 57 56 62 55 56 75 53 44 38 38 48 50 50 49 50 49
51 49 45 44 42 41 41 37 36 35 34 35 35 36 36 38 41 43 41 37 42 45 52 55 57 46 51 56 59 60 67 67 60 68 73 59 54 38 42 49 49 52 52 52 54
44 50 48 47 46 46 43 40 40 38 36 38 39 40 40 43 46 47 45 40 44 50 55 62 67 50 53 59 70 73 77 74 61 55 72 86 61 45 47 52 52 55 57 56 68
26 49 51 50 49 48 46 44 43 41 40 42 45 46 45 49 52 52 46 47 47 55 61 63 69 72 57 55 65 72 77 76 61 73 67 77 71 54 57 58 55 52 57 62 70
54 25 48 53 54 51 50 49 49 46 46 46 50 52 53 55 58 54 54 53 58 58 65 74 76 78 58 59 62 66 68 78 83 82 90 89 65 59 56 56 63 62 68 81 87
52 34 30 51 56 56 57 55 53 49 51 52 56 58 60 62 63 61 61 64 65 67 69 78 86 76 75 70 77 86 88 94 96 98 89 87 69 63 66 74 82 86 87 87 87
47 28 28 44 61 60 58 55 54 58 59 59 61 62 67 69 70 69 71 72 75 76 74 82 81 77 77 78 84 84 82 90 98 90 99 43 82 49 75 80 80 85 89 90 82
53 26 19 24 51 66 67 64 64 65 66 65 66 68 73 74 75 83 79 80 83 82 82 84 83 83 84 83 80 88 84 76 76 81 89 76 64 61 61 68 73 76 78 83 96
95 99 90 21 29 58 67 71 73 73 73 73 73 75 77 79 90 94 94 85 86 88 88 96 97 98 96 91 94 92 62 52 48 43 48 69 49 65 71 82 84 89 96 97 94
Wind_Speed
12 10 7 6 6 6 6 6 6 6 6 7 7 8 6 10 13 14 7 10 11 11 9 10 10 8 4 2 2 2 1 3 1 2 4 6 10 9 10 11 10 10 11 11 12
15 12 8 6 5 6 7 8 8 7 7 8 8 9 8 5 12 9 9 11 10 10 10 9 8 8 5 4 3 2 2 2 1 2 5 7 8 10 9 8 9 8 8 9 12
16 15 12 8 6 7 9 9 10 9 9 8 9 9 10 4 7 10 10 10 10 8 9 8 8 7 6 6 5 5 4 3 3 5 7 7 8 9 8 5 5 6 8 12 13
17 16 16 14 12 11 12 11 11 10 9 9 9 8 11 10 4 9 10 9 10 9 9 9 8 7 7 7 8 6 5 5 4 5 6 8 8 9 9 7 7 9 10 11 13
18 17 17 16 15 14 13 12 12 11 10 9 9 9 8 10 9 9 9 9 10 11 11 9 9 7 8 7 9 9 8 6 5 6 8 10 9 7 7 8 6 5 8 10 14
18 17 16 15 14 13 13 12 11 10 8 8 9 9 9 7 10 10 10 10 10 10 10 10 10 8 8 10 7 7 8 4 4 4 7 11 7 9 10 9 8 9 10 12 14
17 17 16 14 13 12 11 11 11 10 7 6 8 9 10 11 10 10 10 10 10 10 10 9 10 10 7 5 7 7 10 6 7 7 9 13 4 11 10 10 9 9 9 12 12
14 16 16 14 12 10 9 8 8 10 9 5 5 8 9 11 11 11 10 10 9 8 10 8 11 9 7 7 8 11 10 10 9 11 12 10 6 7 10 8 6 6 7 9 11
12 13 14 15 12 9 7 6 4 5 6 8 3 5 9 12 11 11 9 9 10 8 8 9 9 10 11 7 9 10 11 15 11 13 16 11 4 10 8 6 6 6 6 7 9
10 11 12 13 13 10 7 5 3 4 6 3 8 2 6 10 10 11 9 8 9 7 5 9 7 9 8 11 9 15 15 17 18 13 18 10 6 6 5 4 6 4 5 7 9
9 9 10 11 12 11 9 5 2 2 5 6 7 6 5 10 10 11 10 8 7 7 5 5 11 10 12 13 13 16 15 20 14 18 21 14 12 7 2 3 8 6 6 6 7
9 9 9 9 10 11 9 5 2 3 4 6 6 7 6 6 11 12 11 8 9 8 7 8 12 12 9 13 12 16 14 22 8 20 19 11 10 6 4 1 6 8 7 7 8
9 8 8 8 8 9 9 6 2 3 2 5 5 8 8 2 9 10 10 8 10 10 8 6 11 12 11 14 13 14 16 24 24 26 12 12 1 4 5 2 3 7 9 9 9
10 9 8 7 8 9 8 5 2 3 4 3 7 7 7 6 7 10 10 8 10 9 11 6 11 10 14 13 16 15 19 24 25 18 5 6 4 6 6 3 2 2 6 9 12
10 9 9 8 8 8 7 4 2 2 2 3 5 6 6 7 7 9 9 9 9 7 14 9 9 8 14 15 19 12 23 22 18 11 8 3 4 5 7 5 3 3 5 9 13
10 10 9 9 9 8 7 4 2 3 4 3 5 5 5 6 6 8 10 7 8 8 15 11 7 10 13 15 20 22 20 18 10 8 2 4 3 9 9 4 5 5 5 7 11
11 10 9 9 8 7 6 5 4 4 4 2 5 4 4 6 6 9 9 5 10 8 15 11 7 12 10 17 17 20 17 6 4 3 4 4 9 11 10 4 9 10 8 10 13
12 11 9 7 7 7 6 6 5 5 5 5 5 5 5 7 6 9 10 8 10 9 11 11 6 12 12 14 19 11 9 3 4 3 5 21 9 2 10 11 13 9 13 15 13
13 12 11 10 8 8 8 6 4 5 6 6 6 5 5 6 8 10 11 5 8 8 8 7 8 16 12 15 18 9 5 8 6 10 4 7 9 12 17 12 7 12 19 15 18
14 14 13 11 10 9 9 9 9 9 7 6 5 5 6 8 9 10 8 7 10 9 13 9 13 10 12 20 13 11 10 5 4 3 5 7 13 20 14 15 12 20 18 16 24
15 15 14 13 12 12 12 12 12 10 9 7 7 9 10 11 11 12 7 12 7 14 15 17 8 14 17 15 16 13 11 6 6 6 3 4 7 6 11 15 23 28 20 17 34
18 16 15 15 16 13 13 13 12 12 11 11 11 12 12 13 14 13 11 12 13 18 18 12 13 18 24 16 15 14 14 11 6 5 10 8 26 23 13 22 23 25 23 31 45
22 21 19 18 18 15 14 15 16 15 13 13 12 14 15 16 11 9 16 13 19 16 12 18 9 15 11 6 8 11 13 14 17 23 26 10 15 12 16 22 19 24 37 46 42
24 22 21 20 19 19 20 20 18 16 17 17 18 18 16 19 18 13 18 16 20 20 22 24 21 26 23 29 31 31 34 31 28 25 29 41 52 46 44 39 43 41 38 37 38
23 25 24 19 16 14 15 17 18 18 19 20 22 20 17 21 23 20 20 20 24 24 24 23 33 36 42 39 38 40 42 36 40 45 35 51 41 44 45 42 39 38 40 35 27
23 23 28 28 26 24 24 26 24 22 22 23 24 19 21 26 23 23 25 26 28 29 28 31 35 39 49 44 36 36 38 43 43 43 45 47 47 35 33 31 32 31 27 27 31
35 36 35 33 30 27 28 26 26 25 24 22 20 23 24 26 27 28 30 31 31 34 35 35 35 28 37 36 31 33 36 20 24 20 20 30 26 28 34 31 28 29 34 32 31
Wind_Direction
37 39 40 48 61 71 104 127 124 105 85 76 66 52 51 38 27 26 8 19 30 31 33 31 24 18 21 74 117 126 123 160 204 265 308 310 309 307 297 291 285 277 274 280 289
29 29 32 44 68 84 104 120 116 103 90 80 68 50 38 42 31 27 27 33 36 32 31 30 37 20 36 57 64 62 108 124 334 323 340 328 318 315 302 286 280 281 273 278 285
36 43 45 56 82 97 103 109 105 97 87 79 70 55 39 35 32 30 29 35 41 41 45 40 34 34 48 55 65 63 78 71 48 27 356 343 325 315 317 298 279 278 279 294 304
45 50 55 66 86 98 103 103 99 95 88 75 65 55 40 45 42 29 31 37 42 45 51 44 39 44 50 63 59 62 65 69 73 3 4 355 335 317 309 305 298 289 296 304 311
49 56 59 67 81 92 96 97 97 95 88 76 61 47 43 42 43 36 37 42 45 41 45 37 45 59 68 73 64 57 56 67 31 359 352 352 345 344 315 317 315 301 297 305 312
51 57 60 67 73 83 86 88 90 87 85 76 58 52 47 35 39 39 41 43 47 48 50 53 53 53 60 63 64 50 34 27 17 2 348 345 326 327 324 317 303 294 301 310 317
52 55 59 62 71 74 82 85 81 72 78 79 55 46 42 41 37 40 44 44 40 46 45 55 51 47 37 28 35 31 22 27 5 356 342 344 337 326 328 315 297 295 309 314 325
46 49 50 56 60 68 74 78 74 64 60 83 48 39 37 35 38 39 40 43 38 47 40 45 46 44 48 51 35 21 9 13 355 351 344 342 336 329 331 330 313 313 316 325 337
39 39 41 43 46 54 60 66 74 65 57 52 44 29 31 27 35 35 36 40 37 37 36 33 39 36 38 24 20 17 4 359 357 344 340 337 358 316 320 340 334 335 334 335 339
29 29 30 33 34 35 39 49 65 69 34 27 35 20 30 25 30 30 32 31 30 21 17 24 29 31 27 33 25 359 356 356 341 344 339 329 360 314 327 20 5 3 348 353 349
17 17 18 22 23 23 22 22 47 90 37 48 36 35 31 28 28 22 24 28 24 15 12 15 22 22 23 13 3 357 348 340 340 342 337 323 324 292 226 27 21 9 4 353 346
3 7 9 8 12 13 12 4 25 169 49 32 32 25 22 25 23 16 19 28 17 12 13 10 9 7 8 5 356 345 343 340 342 334 327 320 322 179 208 312 15 23 18 7 358
352 352 354 354 358 1 5 357 337 201 232 14 10 15 16 10 21 20 26 28 16 20 1 2 3 360 2 354 349 342 341 338 326 327 328 329 221 219 207 225 355 29 30 22 15
346 341 339 340 343 352 353 353 335 219 231 322 360 355 7 10 11 16 18 17 15 13 8 352 353 358 350 349 348 345 337 329 320 322 304 319 286 238 205 215 261 2 22 24 12
342 336 333 333 338 342 344 344 336 203 323 289 336 350 0 19 5 7 4 6 360 355 6 350 350 2 351 348 349 337 333 322 313 308 305 262 291 236 217 212 250 274 338 7 9
336 332 331 332 337 340 340 333 308 271 252 278 328 333 353 357 357 356 355 360 355 353 352 348 340 353 347 345 345 339 340 318 304 301 280 199 311 265 211 222 278 276 303 343 353
327 326 325 325 328 330 326 314 288 239 288 271 310 307 316 335 332 355 352 337 3 357 352 343 328 338 339 340 338 338 350 334 338 328 236 267 279 251 212 235 246 254 286 311 331
321 319 314 310 311 315 311 296 250 259 274 292 302 293 300 328 320 340 339 330 350 357 345 338 325 327 321 333 333 335 8 13 289 278 289 287 244 274 214 265 235 247 293 294 312
318 314 311 308 304 307 303 287 272 280 271 285 295 282 287 309 316 320 325 302 330 336 356 323 299 313 308 324 329 321 321 313 266 275 301 257 275 276 268 224 223 312 302 285 302
313 309 308 302 297 298 292 276 272 275 273 278 283 269 281 300 306 316 307 303 313 322 330 313 300 296 306 315 311 294 302 303 274 307 287 275 275 265 264 242 270 305 297 300 311
307 304 300 294 286 285 278 271 276 273 267 269 274 275 281 293 293 300 270 308 286 315 315 317 281 298 310 307 296 285 277 261 245 247 237 296 248 280 297 276 281 293 279 291 315
302 299 293 288 284 277 272 271 274 271 264 267 274 277 270 280 287 286 268 301 300 311 307 303 294 284 310 290 282 269 265 247 227 259 250 274 278 295 287 270 278 284 270 300 314
299 295 288 284 276 275 270 268 273 268 265 265 267 274 276 278 284 271 285 294 305 305 301 308 288 304 314 292 299 250 268 262 262 279 258 242 259 277 284 290 296 287 289 295 300
302 294 286 283 275 272 272 271 267 262 269 264 274 276 278 282 280 276 287 294 297 300 296 296 283 282 264 285 291 283 284 275 267 263 264 249 270 274 280 286 292 293 292 293 296
293 288 281 271 271 265 260 260 263 271 271 276 279 281 287 280 284 288 291 288 294 298 294 282 284 293 293 293 289 285 285 279 269 266 249 275 268 289 290 291 290 286 286 286 285
287 294 283 271 267 266 263 267 271 276 274 276 279 285 275 277 291 293 287 288 293 298 292 288 280 289 290 295 297 291 286 287 281 273 260 266 277 288 291 292 289 292 287 287 294
275 282 278 277 268 265 267 270 272 274 277 278 278 277 275 285 283 282 281 284 286 290 288 280 274 273 280 291 292 287 294 285 280 272 271 261 280 288 295 292 291 289 290 287 294